Weather History for Danville, IL

Change the Weather History Date:

Sunday, September 15, 2013

  Actual Average (KLAF) Record (KLAF)
Temperature  
Mean Temperature 60 °F 67 °F  
Max Temperature 79 °F 78 °F 87 °F (1992)
Min Temperature 40 °F 55 °F 42 °F (2007)
Degree Days  
Heating Degree Days 6 2  
Month to date heating degree days 17  
Since 1 July heating degree days 23  
Cooling Degree Days 0 4  
Month to date cooling degree days 78  
Year to date cooling degree days 930  
Growing Degree Days 10 (Base 50)    
Moisture  
Dew Point 46 °F    
Average Humidity 66    
Maximum Humidity 93    
Minimum Humidity 31    
Precipitation  
Precipitation 0.13 in 0.09 in 1.13 in (2005)
Month to date precipitation 1.36  
Year to date precipitation 26.91  
Sea Level Pressure  
Sea Level Pressure 30.04 in    
Wind  
Wind Speed 3 mph (SW)    
Max Wind Speed 13 mph    
Max Gust Speed 21 mph    
Visibility 8 miles    
Events Rain    
T = Trace of Precipitation, MM = Missing Value Source: NWS Daily Summary

Daily Weather History Graph

Daily Weather History Graph

Search for Another Location

Airport:

Trip Planner

Search our weather history database for the weather conditions in past years. The results will help you decide how hot, cold, wet, or windy it might be!

Date:

Astronomy

Sep. 15, 2013 Rise Set
Actual Time 6:31 AM CDT 6:58 PM CDT
Civil Twilight 6:04 AM CDT 7:25 PM CDT
Nautical Twilight 5:32 AM CDT 7:57 PM CDT
Astronomical Twilight 4:59 AM CDT 8:30 PM CDT
Moon 4:26 PM CDT (9/15) 2:08 AM CDT (9/15)
Length of Visible Light 13h 21m
Length of Day
12h 27m
Waxing Gibbous, 82% of the Moon is Illuminated
Sep 15
Waxing Gibbous
Sep 19
Full
Sep 26
Last Quarter
Oct 4
New
Oct 11
First Quarter

Hourly Weather History & Observations

Time (CDT) Temp. Windchill Dew Point Humidity Pressure Visibility Wind Dir Wind Speed Gust Speed Precip Events Conditions
12:15 AM 42.4 °F - 34.9 °F 75% 30.06 in 10.0 mi Calm Calm - N/A   Clear
12:35 AM 41.4 °F - 33.4 °F 73% 30.05 in 10.0 mi Calm Calm - N/A   Clear
12:55 AM 40.8 °F - 32.9 °F 73% 30.05 in 10.0 mi Calm Calm - N/A   Clear
1:15 AM 40.6 °F - 33.4 °F 75% 30.06 in 10.0 mi Calm Calm - N/A   Clear
1:35 AM 40.6 °F - 33.3 °F 75% 30.06 in 10.0 mi Calm Calm - N/A   Clear
1:55 AM 40.1 °F - 33.1 °F 76% 30.06 in 10.0 mi Calm Calm - N/A   Clear
2:15 AM 40.1 °F - 32.9 °F 75% 30.05 in 10.0 mi Calm Calm - N/A   Clear
2:35 AM 40.1 °F - 32.5 °F 74% 30.05 in 10.0 mi Calm Calm - N/A   Clear
2:55 AM 41.0 °F - 32.9 °F 73% 30.04 in 10.0 mi Calm Calm - N/A   Clear
3:15 AM 41.4 °F 39.4 °F 32.7 °F 71% 30.04 in 10.0 mi SE 3.5 mph - N/A   Clear
3:35 AM 42.3 °F - 34.7 °F 75% 30.05 in 10.0 mi Calm Calm - N/A   Clear
3:55 AM 42.4 °F 39.6 °F 35.4 °F 76% 30.05 in 10.0 mi SSE 4.6 mph - N/A   Clear
4:15 AM 43.2 °F - 36.5 °F 77% 30.05 in 10.0 mi Calm Calm - N/A   Clear
4:35 AM 43.7 °F - 36.3 °F 75% 30.05 in 10.0 mi Calm Calm - N/A   Clear
4:55 AM 44.2 °F - 36.5 °F 74% 30.05 in 10.0 mi Calm Calm - N/A   Clear
5:15 AM 43.7 °F - 36.0 °F 74% 30.06 in 10.0 mi Calm Calm - N/A   Clear
5:35 AM 43.7 °F - 36.0 °F 74% 30.06 in 10.0 mi Calm Calm - N/A   Clear
5:55 AM 43.7 °F - 33.3 °F 67% 30.06 in 10.0 mi Calm Calm - N/A   Clear
6:15 AM 43.3 °F 41.7 °F 34.7 °F 72% 30.07 in 10.0 mi ESE 3.5 mph - N/A   Clear
6:35 AM 42.8 °F - 34.9 °F 74% 30.07 in 10.0 mi Calm Calm - N/A   Clear
6:55 AM 41.5 °F - 34.0 °F 75% 30.08 in 10.0 mi Calm Calm - N/A   Clear
7:15 AM 43.0 °F - 36.7 °F 78% 30.08 in 10.0 mi Calm Calm - N/A   Clear
7:35 AM 45.9 °F - 39.6 °F 79% 30.08 in 10.0 mi Calm Calm - N/A   Clear
7:55 AM 48.2 °F - 42.4 °F 80% 30.08 in 10.0 mi Calm Calm - N/A   Clear
8:15 AM 50.9 °F - 45.0 °F 80% 30.07 in 10.0 mi South 3.5 mph - N/A   Clear
8:35 AM 53.4 °F - 45.3 °F 74% 30.06 in 10.0 mi SSE 3.5 mph - N/A   Clear
8:55 AM 55.9 °F - 47.8 °F 74% 30.07 in 10.0 mi Calm Calm - N/A   Clear
9:15 AM 60.3 °F - 49.3 °F 67% 30.07 in 10.0 mi South 6.9 mph - N/A   Clear
9:35 AM 63.3 °F - 49.1 °F 60% 30.07 in 10.0 mi SSW 4.6 mph - N/A   Clear
9:55 AM 65.5 °F - 48.6 °F 54% 30.07 in 10.0 mi SSW 10.4 mph - N/A   Clear
10:15 AM 67.8 °F - 50.0 °F 53% 30.07 in 10.0 mi SW 5.8 mph - N/A   Clear
10:35 AM 68.7 °F - 48.0 °F 48% 30.06 in 10.0 mi SSW 9.2 mph - N/A   Clear
10:55 AM 70.7 °F - 48.0 °F 44% 30.05 in 7.0 mi SSW 10.4 mph - N/A   Clear
11:15 AM 71.6 °F - 47.7 °F 43% 30.05 in 7.0 mi SSW 12.7 mph - N/A   Clear
11:35 AM 73.8 °F - 48.0 °F 40% 30.05 in 10.0 mi SW 9.2 mph - N/A   Scattered Clouds
11:55 AM 74.1 °F - 47.5 °F 39% 30.04 in 10.0 mi SW 11.5 mph 17.3 mph N/A   Clear
12:15 PM 74.1 °F - 46.9 °F 38% 30.04 in 7.0 mi South 9.2 mph 18.4 mph N/A   Clear
12:35 PM 73.2 °F - 47.1 °F 39% 30.04 in 7.0 mi SW 9.2 mph 17.3 mph N/A   Clear
12:55 PM 76.5 °F - 47.7 °F 36% 30.03 in 7.0 mi SSW 9.2 mph - N/A   Clear
1:15 PM 77.5 °F - 46.9 °F 34% 30.01 in 7.0 mi SW 8.1 mph 17.3 mph N/A   Clear
1:35 PM 77.0 °F - 46.8 °F 34% 30.01 in 7.0 mi SSW 9.2 mph - N/A   Clear
1:55 PM 77.7 °F - 47.1 °F 34% 30.00 in 7.0 mi SW 11.5 mph 17.3 mph N/A   Clear
2:15 PM 78.6 °F - 46.9 °F 33% 29.99 in 7.0 mi South 12.7 mph 18.4 mph N/A   Scattered Clouds
2:35 PM 79.2 °F - 46.4 °F 31% 29.98 in 5.0 mi SSW 11.5 mph 20.7 mph N/A   Haze
2:55 PM 78.8 °F - 47.1 °F 33% 29.97 in 7.0 mi SSW 11.5 mph 18.4 mph N/A   Clear
3:15 PM 76.8 °F - 46.0 °F 34% 29.98 in 5.0 mi SW 9.2 mph 17.3 mph N/A   Haze
3:35 PM 75.2 °F - 46.4 °F 36% 29.98 in 7.0 mi SSW 8.1 mph - N/A   Mostly Cloudy
3:55 PM 73.2 °F - 45.7 °F 37% 29.98 in 5.0 mi SW 6.9 mph - N/A   Haze
4:15 PM 73.4 °F - 45.9 °F 37% 29.98 in 5.0 mi SW 9.2 mph - N/A   Haze
4:35 PM 71.2 °F - 48.2 °F 44% 29.98 in 10.0 mi SSW 4.6 mph - N/A Rain Light Rain
4:55 PM 69.4 °F - 50.7 °F 51% 29.98 in 10.0 mi Calm Calm - N/A Rain Light Rain
5:15 PM 70.0 °F - 50.0 °F 49% 29.99 in 7.0 mi WSW 4.6 mph - N/A Rain Rain
5:35 PM 68.0 °F - 51.1 °F 55% 30.00 in 10.0 mi West 3.5 mph - N/A Rain Rain
5:55 PM 63.7 °F - 52.5 °F 67% 30.00 in 10.0 mi SW 8.1 mph - 0.05 in Rain Light Rain
6:15 PM 62.1 °F - 53.2 °F 73% 30.01 in 10.0 mi Calm Calm - N/A Rain Rain
6:35 PM 62.6 °F - 56.8 °F 81% 30.01 in 7.0 mi NW 3.5 mph - N/A Rain Rain
6:55 PM 62.1 °F - 55.9 °F 80% 30.01 in 7.0 mi Calm Calm - N/A Rain Heavy Rain
7:15 PM 61.9 °F - 55.9 °F 81% 30.01 in 7.0 mi Calm Calm - N/A Rain Rain
7:35 PM 61.7 °F - 55.4 °F 80% 30.02 in 7.0 mi Calm Calm - N/A Rain Rain
7:55 PM 61.7 °F - 54.9 °F 78% 30.03 in 7.0 mi Calm Calm - N/A Rain Rain
8:15 PM 61.5 °F - 54.3 °F 77% 30.04 in 7.0 mi Calm Calm - N/A Rain Rain
8:35 PM 61.7 °F - 56.8 °F 84% 30.04 in 7.0 mi North 5.8 mph - N/A Rain Rain
8:55 PM 61.3 °F - 56.8 °F 85% 30.05 in 10.0 mi North 6.9 mph - N/A Rain Rain
9:15 PM 61.0 °F - 57.0 °F 87% 30.06 in 7.0 mi North 6.9 mph - N/A Rain Rain
9:35 PM 60.4 °F - 57.2 °F 89% 30.06 in 10.0 mi North 9.2 mph - N/A Rain Light Rain
9:55 PM 59.5 °F - 56.5 °F 90% 30.07 in 7.0 mi North 9.2 mph - N/A Rain Light Rain
10:15 PM 59.0 °F - 56.5 °F 91% 30.07 in 5.0 mi North 5.8 mph - 0.07 in Rain Rain
10:35 PM 58.6 °F - 56.5 °F 93% 30.08 in 5.0 mi North 5.8 mph - 0.08 in Rain Light Rain
10:55 PM 58.5 °F - 56.3 °F 93% 30.08 in 7.0 mi North 5.8 mph - 0.08 in Rain Light Rain
11:15 PM 58.3 °F - 55.9 °F 92% 30.08 in 7.0 mi NNE 5.8 mph - N/A   Overcast
11:35 PM 58.1 °F - 55.4 °F 91% 30.08 in 7.0 mi NNE 4.6 mph - N/A   Overcast
11:55 PM 58.1 °F - 55.4 °F 91% 30.08 in 7.0 mi North 6.9 mph - N/A   Overcast